Location: Leverkusen
(51.0459°N, 7.0192°E)
Time: 10:54:48
(UTC+01:00)

ISS - Pass Details

Date: 01 February 2019
Orbit: 403 x 411 km, 51.6° (Epoch: 18 February)

Event Time Altitude Azimuth Distance (km) Brightness Sun altitude
Rises 20:30:51 0° 284° (WNW) 2,341 1.2 -29.6°
Reaches altitude 10° 20:32:58 10° 280° (W) 1,479 -0.1 -29.9°
Enters shadow 20:33:34 14° 277° (W) 1,243 -0.6 -30.0°
